Location: Ellerstadt
(49.4644°N, 8.2615°E)
Time: 03:41:17
(UTC+00:00)

SL-16 R/B - Visible Passes

Search period start: 15 June 2021 00:00
Search period end: 25 June 2021 00:00
Orbit: 843 x 845 km, 71.0° (Epoch: 14 June)

Date Brightness Start Highest point End Pass type
(mag) Time Alt. Az. Time Alt. Az. Time Alt. Az.
15 Jun 5.2 00:02:38 10° NW 00:04:21 11° NNW 00:06:05 10° N visible
15 Jun 2.4 20:14:12 10° S 20:19:39 51° ESE 20:25:08 10° NE visible
15 Jun 3.9 21:58:51 10° WSW 22:03:59 34° NW 22:09:09 10° NNE visible
15 Jun 5.2 23:48:08 10° NW 23:49:58 11° NNW 23:51:49 10° N visible
16 Jun 3.9 21:44:27 10° WSW 21:49:38 35° NW 21:54:50 10° NNE visible
16 Jun 5.3 23:33:37 10° NW 23:35:35 12° NNW 23:37:33 10° N visible
17 Jun 3.9 21:30:04 10° WSW 21:35:17 36° NW 21:40:31 10° NNE visible
17 Jun 5.3 23:19:07 10° NW 23:21:12 12° NNW 23:23:16 10° N visible
18 Jun 3.8 21:15:41 10° WSW 21:20:56 37° NW 21:26:12 10° NNE visible
18 Jun 5.3 23:04:37 10° NW 23:06:48 12° NNW 23:09:00 10° N visible
19 Jun 5.3 02:37:43 10° N 02:40:53 15° NNE 02:44:04 10° ENE visible
19 Jun 3.8 21:01:18 10° WSW 21:06:34 38° NW 21:11:52 10° NNE visible
19 Jun 5.4 22:50:08 10° NW 22:52:26 12° NNW 22:54:43 10° N visible
20 Jun 5.4 02:23:25 10° N 02:26:31 15° NNE 02:29:36 10° ENE visible
20 Jun 3.8 20:46:55 10° WSW 20:52:13 39° NW 20:57:33 10° NNE visible
20 Jun 5.4 22:35:38 10° NW 22:38:02 13° NNW 22:40:26 10° N visible
21 Jun 5.5 02:09:06 10° N 02:12:08 14° NNE 02:15:08 10° ENE visible
21 Jun 3.8 20:32:32 10° WSW 20:37:52 40° NW 20:43:13 10° NNE visible
21 Jun 5.4 22:21:09 10° NW 22:23:39 13° NNW 22:26:09 10° N visible
22 Jun 5.5 01:54:49 10° N 01:57:45 14° NNE 02:00:40 10° ENE visible
22 Jun 3.8 20:18:09 10° WSW 20:23:30 42° NW 20:28:54 10° NNE visible
22 Jun 5.5 22:06:41 10° NW 22:09:15 13° NNW 22:11:52 10° N visible
23 Jun 5.6 01:40:31 10° N 01:43:22 14° NNE 01:46:12 10° ENE visible
23 Jun 5.5 21:52:12 10° NW 21:54:53 13° NNW 21:57:35 10° N visible
24 Jun 5.7 01:26:14 10° N 01:28:59 13° NNE 01:31:44 10° ENE visible
24 Jun 5.6 21:37:43 10° WNW 21:40:30 14° NNW 21:43:16 10° N visible
